星链-5043 (STARLINK-5043 )

导读

STARLINK-5043是美国星链互联网卫星项目中的一员,由SpaceX在2022年9月24日发射,该卫星属于星链低轨卫星星座的组成部分,运行在近地轨道,主要用于为全球提供高速互联网接入服务,扩大星链网络覆盖范围,提升星座服务的容量与稳定性,是SpaceX星座组网建设的一环。

基本信息
目录编号:
53894
目录名称:
STARLINK-5043
国际标识:
2022-119J
轨道中心:
EARTH
卫星名称:
星链-5043
卫星全名:
星链-5043 (STARLINK-5043 )
卫星状态:
在轨 (已飞行1360 天)
发射日期:
2022-09-24 UTC
国别 :
美国 (US)
星等 :
--
轨道信息
数据来源 国际轨道数据
星历时间: 2026-06-15T04:00:05+0800
4小时前
查看轨道信息
半长轴: 6800.782km
偏心率: 0.0001459
轨道倾角: 53.217°
近地点辐角 73.268°
升交点赤经 242.071°
平近点角 339.376°
近地点: 421.652km
远地点: 423.638km
周期: 93.025分钟
每日圈数: 15.479772
详细信息
固有亮度:
5
最大亮度:
2.5
卫星平台:
Starlink v1.5
覆盖范围:
全球
运营商:
太空探索技术公司
运营商所在国:
美国
制造商(研发单位):
太空探索技术公司
制造商所在国:
美国
使用方式:
暂无
卫星简介
星链(Starlink)计划是由太空探索技术公司(SpaceX)提出的一个巨型低轨卫星互联网星座项目,计划在2019年至2024年间在太空搭建由约1.2万颗卫星组成的“星链”网络,其中1584颗将部署在地球上空550千米处的近地轨道,并从2020年开始工作。该卫星仍在工作。
2D轨道图
3D轨道图
轨道高度分析图
轨道倾角分析图
轨道综合分析图
查看轨道综合分析图